TimeEDT,TemperatureF,Dew PointF,Humidity,Sea Level PressureIn,VisibilityMPH,Wind Direction,Wind SpeedMPH,Gust SpeedMPH,PrecipitationIn,Events,Conditions,WindDirDegrees,DateUTC
12:58 AM,54.1,52.3,94,30.22,10.0,South,3.5,-,N/A,,Clear,170,2013-09-19 04:58:00
1:58 AM,52.2,51.6,98,30.21,10.0,SW,1.2,-,N/A,,Clear,230,2013-09-19 05:58:00
2:58 AM,52.7,52.2,98,30.20,10.0,SSW,3.5,-,N/A,,Clear,210,2013-09-19 06:58:00
3:58 AM,52.5,52.2,99,30.20,10.0,Calm,Calm,-,N/A,,Clear,0,2013-09-19 07:58:00
4:58 AM,50.5,50.4,99,30.19,10.0,SSW,2.3,-,N/A,,Clear,200,2013-09-19 08:58:00
5:58 AM,50.5,50.2,99,30.20,3.0,South,1.2,-,N/A,,Clear,170,2013-09-19 09:58:00
6:03 AM,50.0,50.0,100,30.19,2.0,Calm,Calm,-,N/A,,Clear,0,2013-09-19 10:03:00
6:08 AM,50.0,50.0,100,30.19,4.0,Calm,Calm,-,N/A,,Clear,0,2013-09-19 10:08:00
6:13 AM,50.0,50.0,100,30.19,10.0,Calm,Calm,-,N/A,,Clear,0,2013-09-19 10:13:00
6:58 AM,50.0,49.6,99,30.20,10.0,South,1.2,-,N/A,,Clear,180,2013-09-19 10:58:00
7:58 AM,53.8,53.4,99,30.21,10.0,Calm,Calm,-,N/A,,Clear,0,2013-09-19 11:58:00
8:58 AM,60.8,54.7,80,30.20,10.0,SSW,4.6,-,N/A,,Clear,200,2013-09-19 12:58:00
9:58 AM,66.0,55.2,68,30.20,10.0,Variable,4.6,-,N/A,,Clear,0,2013-09-19 13:58:00
10:58 AM,69.3,55.2,61,30.20,10.0,SW,5.8,-,N/A,,Mostly Cloudy,230,2013-09-19 14:58:00
11:58 AM,69.4,52.9,56,30.20,10.0,WSW,6.9,-,N/A,,Partly Cloudy,240,2013-09-19 15:58:00
12:58 PM,72.9,52.0,48,30.17,10.0,SSW,8.1,-,N/A,,Partly Cloudy,210,2013-09-19 16:58:00
1:58 PM,73.8,51.4,45,30.15,10.0,Variable,3.5,-,N/A,,Clear,0,2013-09-19 17:58:00
2:13 PM,73.4,55.4,53,30.14,10.0,ESE,8.1,-,N/A,Rain,Light Rain,110,2013-09-19 18:13:00
2:58 PM,72.3,56.8,58,30.13,10.0,East,11.5,-,N/A,,Clear,100,2013-09-19 18:58:00
3:58 PM,71.6,57.4,61,30.11,10.0,ESE,12.7,-,N/A,,Clear,110,2013-09-19 19:58:00
4:58 PM,70.5,56.7,61,30.10,10.0,ESE,12.7,-,N/A,,Clear,110,2013-09-19 20:58:00
5:58 PM,68.7,55.8,63,30.11,10.0,ESE,10.4,-,N/A,,Clear,120,2013-09-19 21:58:00
6:58 PM,64.8,55.9,73,30.11,10.0,SE,5.8,-,N/A,,Clear,140,2013-09-19 22:58:00
7:58 PM,61.3,54.5,78,30.12,10.0,SE,4.6,-,N/A,,Clear,140,2013-09-19 23:58:00
8:58 PM,59.5,54.5,83,30.13,10.0,SSE,5.8,-,N/A,,Clear,150,2013-09-20 00:58:00
9:58 PM,57.9,54.3,88,30.12,10.0,South,5.8,-,N/A,,Clear,170,2013-09-20 01:58:00
10:58 PM,57.4,53.4,87,30.11,10.0,South,5.8,-,N/A,,Clear,180,2013-09-20 02:58:00
11:58 PM,57.0,52.9,86,30.10,10.0,SSE,5.8,-,N/A,,Clear,160,2013-09-20 03:58:00